Date,TemperatureHighF,TemperatureAvgF,TemperatureLowF,DewpointHighF,DewpointAvgF,DewpointLowF,HumidityHigh,HumidityAvg,HumidityLow,PressureMaxIn,PressureMinIn,WindSpeedMaxMPH,WindSpeedAvgMPH,GustSpeedMaxMPH,PrecipitationSumIn
2013-1-1,11,3,-5,7,-2,-8,88,80,60,0.00,40.00,0,0,0,0.00
2013-1-2,19,16,12,13,10,9,93,80,67,0.00,40.00,0,0,0,0.00
2013-1-3,19,15,8,18,13,5,97,91,88,0.00,40.00,0,0,0,0.00
2013-1-4,27,18,7,16,13,5,94,79,60,0.00,40.00,0,0,1,0.00
2013-1-5,26,16,3,18,12,1,94,83,67,0.00,40.00,0,0,0,0.00
2013-1-6,25,20,9,22,16,8,96,88,74,0.00,40.00,0,0,0,0.00
2013-1-7,33,22,9,22,16,8,96,80,61,0.00,40.00,0,0,1,0.00
2013-1-8,34,26,9,30,23,9,98,89,75,0.00,40.00,0,0,0,0.00
2013-1-9,34,30,18,30,24,15,91,78,61,0.00,40.00,0,0,1,0.00
2013-1-10,35,26,18,33,20,15,98,82,47,0.00,40.00,0,0,0,0.00
2013-1-11,41,36,33,40,35,33,98,98,98,0.00,40.00,0,0,0,0.00
2013-1-12,41,26,11,41,20,3,98,80,68,0.00,40.00,0,-11,1,0.00
2013-1-13,11,10,3,6,3,-1,81,74,67,0.00,40.00,0,-9,0,0.00
2013-1-14,12,7,1,6,2,-2,85,80,71,0.00,40.00,0,0,0,0.00
2013-1-15,27,15,3,12,8,0,88,73,48,0.00,40.00,0,0,0,0.00
2013-1-16,30,23,14,26,16,0,91,74,47,0.00,40.00,0,0,1,0.00
2013-1-17,14,9,3,3,-1,-6,82,64,54,0.00,40.00,0,0,0,0.00
2013-1-18,38,22,3,30,17,-1,90,82,62,0.00,40.00,0,0,0,0.00
2013-1-19,37,26,4,32,21,-5,96,81,59,0.00,40.00,1,0,2,0.00
2013-1-20,6,2,-3,-5,-7,-9,74,65,52,0.00,40.00,0,0,1,0.00
2013-1-21,0,-8,-12,-6,-16,-19,77,68,59,0.00,40.00,0,0,0,0.00
2013-1-22,-3,-10,-15,-13,-17,-20,77,72,62,0.00,40.00,0,0,0,0.00
2013-1-23,11,2,-7,4,-5,-13,79,73,66,0.00,40.00,0,0,1,0.00
2013-1-24,-3,-7,-8,-9,-12,-13,77,76,73,0.00,40.00,0,0,0,0.00
2013-1-30,21,14,9,20,11,5,94,87,81,0.00,40.00,0,0,1,0.00
2013-1-31,7,4,-1,0,-3,-6,82,73,62,0.00,40.00,0,0,0,0.00
2013-2-1,0,-6,-14,-6,-14,-19,78,69,53,0.00,40.00,0,0,0,0.00
2013-2-2,9,2,-2,-4,-6,-10,80,68,47,0.00,40.00,0,0,0,0.00
2013-2-3,12,7,1,3,0,-4,87,72,53,0.00,40.00,0,0,1,0.00
2013-2-4,13,6,0,0,-5,-8,76,61,39,0.00,40.00,0,0,0,0.00
2013-2-5,20,12,-5,19,8,-7,96,82,57,0.00,40.00,0,0,0,0.00
2013-2-6,21,7,-10,20,4,-13,96,90,86,0.00,40.00,0,0,0,0.00
2013-2-7,25,23,21,24,22,19,98,96,89,0.00,40.00,0,0,0,0.00
2013-2-8,23,14,3,17,7,-1,89,74,45,0.00,40.00,0,0,0,0.00
2013-2-9,24,16,4,23,14,0,96,93,86,0.00,40.00,0,0,0,0.00
2013-2-10,36,29,23,35,28,22,98,98,96,0.00,40.00,0,0,1,0.00
2013-2-11,34,28,23,33,26,18,98,92,80,0.00,40.00,0,0,1,0.00
2013-2-12,28,22,16,20,17,13,93,82,67,0.00,40.00,0,0,0,0.00
2013-2-13,33,27,21,29,24,20,97,88,66,0.00,40.00,0,0,0,0.00
2013-2-14,29,26,13,29,22,7,98,85,58,0.00,40.00,0,0,0,0.00
2013-2-15,16,9,3,5,0,-4,85,69,51,0.00,40.00,0,0,0,0.00
2013-2-16,14,2,-12,1,-7,-100,86,69,41,0.00,40.00,0,0,0,0.00
2013-2-17,20,4,-18,10,-6,-22,84,67,44,0.00,40.00,0,0,0,0.00
2013-2-18,36,27,20,30,22,13,98,83,64,0.00,40.00,0,0,0,0.00
2013-2-19,22,9,2,22,1,-8,98,73,55,0.00,40.00,0,0,1,0.00
2013-2-20,20,9,-2,6,1,-6,85,70,46,0.00,40.00,0,0,0,0.00
2013-2-21,22,10,-2,19,4,-5,93,76,60,0.00,40.00,0,0,1,0.00
2013-2-22,28,23,17,26,22,17,98,94,87,0.00,40.00,0,0,0,0.00
2013-2-23,27,23,20,22,21,19,98,91,77,0.00,40.00,0,0,0,0.00
2013-2-24,33,26,16,23,20,14,95,80,56,0.00,40.00,0,0,0,0.00
2013-2-25,32,24,13,25,20,11,95,86,68,0.00,40.00,0,0,0,0.00
2013-2-26,34,30,25,26,24,22,90,78,69,0.00,40.00,0,0,0,0.00
2013-2-27,32,29,28,30,26,22,98,87,77,0.00,40.00,0,0,0,0.00
2013-2-28,30,27,21,27,20,13,91,76,57,0.00,40.00,0,0,0,0.00
2013-3-1,28,22,16,14,10,2,75,62,46,0.00,40.00,0,0,0,0.00
2013-3-2,27,14,-2,10,3,-5,91,66,33,0.00,40.00,0,0,0,0.00
2013-3-3,29,12,-3,6,-2,-7,88,58,25,0.00,40.00,0,0,0,0.00
2013-3-4,28,19,2,15,8,-6,83,65,45,0.00,40.00,0,0,0,0.00
2013-3-5,27,24,22,24,18,12,93,79,59,0.00,40.00,0,0,0,0.00
2013-3-6,29,23,15,20,17,9,92,78,58,0.00,40.00,0,0,0,0.00
2013-3-7,30,16,-1,14,8,-4,91,72,41,0.00,40.00,0,0,0,0.00
2013-3-8,37,26,13,23,19,12,96,75,51,0.00,40.00,0,0,0,0.00
2013-3-9,34,31,27,33,29,24,98,91,83,0.00,40.00,0,0,0,0.00
2013-3-10,36,33,29,34,32,28,98,95,83,0.00,40.00,0,0,1,0.00
2013-3-11,28,27,23,27,25,19,98,92,82,0.00,40.00,0,0,0,0.00
2013-3-12,27,22,17,19,16,10,89,78,47,0.00,40.00,0,0,1,0.00
2013-3-13,28,20,11,13,5,-2,91,56,27,0.00,40.00,0,0,1,0.00
2013-3-14,33,20,6,25,12,2,93,72,47,0.00,40.00,0,0,0,0.00
2013-3-15,34,29,24,29,24,20,97,85,57,0.00,40.00,0,0,0,0.00
2013-3-16,26,20,14,25,12,3,98,72,48,0.00,40.00,0,0,1,0.00
2013-3-17,23,13,3,10,2,-4,78,62,47,0.00,40.00,0,0,0,0.00
2013-3-18,29,20,13,26,18,9,95,91,78,0.00,40.00,0,0,2,0.00
2013-3-19,21,15,9,11,6,0,90,70,49,0.00,40.00,0,0,1,0.00
2013-3-20,16,8,0,1,-3,-8,71,59,52,0.00,40.00,0,0,1,0.00
2013-3-21,24,12,0,8,3,-6,88,68,46,0.00,40.00,0,0,0,0.00
2013-3-22,33,19,1,11,6,-2,89,61,35,0.00,40.00,0,0,0,0.00
2013-3-23,35,24,9,20,13,5,93,67,39,0.00,40.00,0,0,0,0.00
2013-3-24,31,28,24,22,20,19,85,73,61,0.00,40.00,0,0,0,0.00
2013-3-25,34,26,16,22,18,15,95,72,49,0.00,40.00,0,0,0,0.00
2013-3-26,35,29,22,24,19,16,89,66,44,0.00,40.00,0,0,0,0.00
2013-3-27,38,32,27,22,17,12,71,55,36,0.00,40.00,0,0,0,0.00
2013-3-28,41,29,14,17,14,11,89,57,32,0.00,40.00,0,0,0,0.00
2013-3-29,48,33,17,22,16,14,88,54,27,0.00,40.00,0,0,0,0.00
2013-3-30,38,36,32,37,30,-100,98,85,60,0.00,40.00,0,0,0,0.00
2013-3-31,36,31,26,32,23,8,98,74,36,0.00,40.00,0,0,1,0.00
2013-4-1,29,23,17,10,6,4,60,48,35,0.00,40.00,0,0,1,0.00
2013-4-2,32,23,15,13,9,5,75,56,33,0.00,40.00,0,0,1,0.00
2013-4-3,39,26,10,16,9,4,82,51,28,0.00,40.00,0,0,0,0.00
2013-4-4,45,37,30,30,22,17,69,55,39,0.00,40.00,0,0,1,0.00
2013-4-5,37,31,23,29,17,13,96,56,38,0.00,40.00,0,0,0,0.00
2013-4-6,42,34,29,37,30,25,98,84,58,0.00,40.00,0,0,1,0.00
2013-4-7,40,34,32,33,30,28,98,83,62,0.00,40.00,0,0,0,0.00
2013-4-8,39,36,33,36,34,32,97,93,85,0.00,40.00,0,0,0,0.00
2013-4-9,37,35,33,36,32,20,98,88,56,0.00,40.00,0,0,0,0.00
2013-4-10,39,34,27,27,21,12,97,63,35,0.00,40.00,0,0,0,0.00
2013-4-11,34,31,27,31,24,13,97,76,43,0.00,40.00,0,0,1,0.00
2013-4-12,33,30,27,29,26,24,98,88,70,0.00,40.00,0,0,0,0.00
2013-4-13,33,28,24,27,22,19,95,79,59,0.00,40.00,0,0,0,0.00
2013-4-14,33,28,20,32,26,19,98,92,66,0.00,40.00,0,0,0,0.00
2013-4-15,41,36,32,37,29,23,98,78,49,0.00,40.00,0,0,1,0.00
2013-4-16,42,36,33,29,28,26,86,73,55,0.00,40.00,0,0,0,0.00
2013-4-17,38,34,30,33,28,25,96,78,67,0.00,40.00,0,0,0,0.00
2013-4-18,36,35,33,36,34,33,98,98,98,0.00,40.00,0,0,0,0.00
2013-4-19,33,28,25,32,25,18,98,87,74,0.00,40.00,0,0,0,0.00
2013-4-20,37,28,20,19,13,5,88,57,26,0.00,40.00,0,0,0,0.00
2013-4-21,37,33,29,34,28,17,98,81,59,0.00,40.00,0,0,1,0.00
2013-4-22,43,41,36,43,40,35,98,98,96,0.00,40.00,0,0,0,0.00
2013-4-23,39,34,29,38,30,24,98,85,64,0.00,40.00,0,0,0,0.00
2013-4-24,47,35,26,32,23,17,96,66,34,0.00,40.00,0,0,1,0.00
2013-4-25,44,36,31,33,28,22,98,77,41,0.00,40.00,0,0,1,0.00
2013-4-26,68,50,34,44,33,27,78,57,30,0.00,40.00,0,0,1,0.00
2013-4-27,69,57,42,49,44,41,96,66,37,0.00,40.00,0,0,0,0.00
2013-4-28,71,58,41,45,42,38,96,58,30,0.00,40.00,0,0,0,0.00
2013-4-29,70,60,52,56,52,43,96,76,48,0.00,40.00,0,0,0,0.00
2013-4-30,80,64,51,58,51,39,97,68,33,0.00,40.00,0,0,1,0.00
2013-5-1,52,47,36,49,42,33,98,84,65,0.00,40.00,0,0,1,0.00
2013-5-2,36,33,30,33,31,28,98,93,88,0.00,40.00,0,0,1,0.00
2013-5-3,36,32,29,35,32,28,98,97,92,0.00,40.00,0,0,0,0.00
2013-5-4,71,51,36,53,44,35,98,79,29,0.00,40.00,0,0,0,0.00
2013-5-5,71,56,43,46,42,35,93,63,28,0.00,40.00,0,0,0,0.00
2013-5-6,73,60,41,46,38,30,96,54,21,0.00,40.00,0,0,0,0.00
2013-5-7,77,64,46,49,38,27,91,45,17,0.00,40.00,0,0,0,0.00
2013-5-8,79,65,48,46,40,35,80,44,22,0.00,40.00,0,0,0,0.00
2013-5-9,64,52,39,53,46,39,97,80,49,0.00,40.00,0,0,0,0.00
2013-5-10,62,47,36,39,28,-100,97,59,23,0.00,40.00,0,0,0,0.00
2013-5-11,51,43,36,40,28,-100,91,60,41,0.00,40.00,0,0,1,0.00
2013-5-12,50,40,32,32,21,14,82,48,27,0.00,40.00,0,0,1,0.00
2013-5-13,59,46,28,32,25,16,89,48,26,0.00,40.00,0,0,0,0.00
2013-5-14,81,63,43,52,43,30,86,51,28,0.00,40.00,0,0,1,0.00
2013-5-15,73,66,56,47,43,39,72,45,30,0.00,40.00,0,0,1,0.00
2013-5-16,78,59,48,52,18,-100,93,46,22,0.00,40.00,0,0,0,0.00
2013-5-17,60,52,49,52,40,-100,98,79,51,0.00,40.00,0,0,0,0.00
2013-5-18,73,61,50,63,56,49,98,84,66,0.00,40.00,0,0,0,0.00
2013-5-19,80,69,59,64,61,58,97,78,49,0.00,40.00,0,0,0,0.00
2013-5-20,78,69,62,62,58,52,96,71,43,0.00,40.00,0,0,1,0.00
2013-5-21,68,63,57,64,58,53,97,86,64,0.00,40.00,0,0,0,0.00
2013-5-22,58,54,49,57,53,48,97,96,86,0.00,40.00,0,0,0,0.00
2013-5-23,57,49,41,49,35,26,97,64,31,0.00,40.00,0,0,0,0.00
2013-5-24,61,49,33,44,33,28,94,59,32,0.00,40.00,0,0,0,0.00
2013-5-25,64,54,46,44,41,34,91,63,34,0.00,40.00,0,0,0,0.00
2013-5-26,63,54,43,42,38,35,90,58,35,0.00,40.00,0,0,0,0.00
2013-5-27,60,54,51,52,46,39,96,73,59,0.00,40.00,0,0,1,0.00
2013-5-28,55,53,50,55,52,49,98,98,96,0.00,40.00,0,0,0,0.00
2013-5-29,63,58,55,63,58,55,98,98,95,0.00,40.00,0,0,0,0.00
2013-5-30,78,68,61,70,65,60,97,90,71,0.00,40.00,0,0,0,0.00
2013-5-31,76,68,57,67,59,54,96,76,48,0.00,40.00,0,-42,0,0.00
2013-6-1,69,59,47,59,55,46,97,89,61,0.00,40.00,0,0,0,0.00
2013-6-2,58,48,42,46,41,38,94,78,49,0.00,40.00,0,0,0,0.00
2013-6-3,67,57,41,47,41,36,97,60,33,0.00,40.00,0,0,0,0.00
2013-6-4,57,53,51,53,48,36,97,83,45,0.00,40.00,0,0,0,0.00
2013-6-5,54,51,49,54,50,49,98,97,91,0.00,40.00,0,0,0,0.00
2013-6-6,53,51,49,53,50,48,98,98,95,0.00,40.00,0,0,0,0.00
2013-6-7,66,56,49,54,49,46,96,79,53,0.00,40.00,0,0,0,0.00
2013-6-8,66,58,52,55,52,47,97,82,54,0.00,40.00,0,0,0,0.00
2013-6-9,69,59,53,62,55,50,96,87,69,0.00,40.00,0,0,0,0.00
2013-6-10,69,60,57,63,59,55,97,95,81,0.00,40.00,0,0,0,0.00
2013-6-11,76,72,65,64,62,58,93,72,56,0.00,40.00,0,0,0,0.00
2013-6-12,69,64,60,64,49,-100,96,91,76,0.00,40.00,0,0,0,0.00
2013-6-13,74,64,55,59,47,-100,97,72,42,0.00,40.00,0,0,0,0.00
2013-6-14,74,69,58,58,50,44,85,51,39,0.00,40.00,0,0,0,0.00
2013-6-15,70,64,60,68,62,58,98,95,85,0.00,40.00,0,0,1,0.00
2013-6-16,79,67,57,61,55,48,98,69,36,0.00,40.00,0,0,1,0.00
2013-6-17,73,64,53,60,56,52,94,76,57,0.00,40.00,0,0,0,0.00
2013-6-18,70,61,51,58,48,40,95,67,35,0.00,40.00,0,0,0,0.00
2013-6-19,76,63,49,59,52,47,94,68,47,0.00,40.00,0,0,0,0.00
2013-6-20,81,67,58,65,59,56,94,79,47,0.00,40.00,0,0,0,0.00
2013-6-22,74,70,63,70,68,62,97,93,86,0.00,40.00,0,0,0,0.00
2013-6-23,81,72,64,71,66,63,97,81,55,0.00,40.00,0,0,1,0.00
2013-6-24,80,72,64,71,67,63,96,87,70,0.00,40.00,0,0,0,0.00
2013-6-25,79,71,64,69,65,63,97,83,59,0.00,40.00,0,0,0,0.00
2013-6-26,82,72,68,72,69,67,97,91,59,0.00,40.00,0,0,0,0.00
2013-6-27,82,73,65,69,62,56,97,74,42,0.00,40.00,0,0,1,0.00
2013-6-28,70,65,61,65,61,55,96,87,69,0.00,40.00,0,0,0,0.00
2013-6-29,70,63,58,61,56,47,97,81,51,0.00,40.00,0,0,0,0.00
2013-6-30,77,66,53,49,45,40,74,49,28,0.00,40.00,0,0,0,0.00
2013-7-1,81,69,55,57,40,-100,81,53,30,0.00,40.00,0,0,0,0.00
2013-7-2,75,65,53,57,51,46,94,63,36,0.00,40.00,0,0,0,0.00
2013-7-3,74,62,50,60,36,-100,96,70,30,0.00,40.00,0,0,0,0.00
2013-7-4,81,70,57,62,55,-100,97,67,39,0.00,40.00,0,0,0,0.00
2013-7-5,83,73,60,61,57,51,94,60,33,0.00,40.00,0,0,0,0.00
2013-7-6,87,74,65,65,62,59,91,69,40,0.00,40.00,0,0,0,0.00
2013-7-7,86,76,69,71,68,65,97,76,50,0.00,40.00,0,0,0,0.00
2013-7-8,85,73,67,72,68,64,98,87,54,0.00,40.00,0,0,0,0.00
2013-7-9,81,73,67,74,65,-100,98,87,59,0.00,40.00,0,0,1,0.00
2013-7-10,72,66,58,69,54,-100,96,71,47,0.00,40.00,0,0,0,0.00
2013-7-11,80,68,56,63,51,-100,97,67,34,0.00,40.00,0,0,0,0.00
2013-7-12,81,70,58,63,56,51,97,66,36,0.00,40.00,0,0,0,0.00
2013-7-13,80,71,62,63,59,56,91,68,44,0.00,40.00,0,0,0,0.00
2013-7-14,85,74,61,65,61,58,93,66,45,0.00,40.00,0,0,0,0.00
2013-7-15,85,75,64,73,67,62,97,78,48,0.00,40.00,0,0,0,0.00
2013-7-16,90,80,72,74,70,66,97,74,48,0.00,40.00,0,0,0,0.00
2013-7-17,89,81,72,74,69,62,95,69,42,0.00,40.00,0,0,0,0.00
2013-7-18,90,82,73,71,61,-100,93,67,45,0.00,40.00,0,0,1,0.00
2013-7-19,83,77,67,72,57,-100,94,67,42,0.00,40.00,0,0,1,0.00
2013-7-20,74,68,62,62,53,-100,94,65,43,0.00,40.00,0,0,0,0.00
2013-7-21,68,62,58,61,57,51,97,83,64,0.00,40.00,0,0,0,0.00
2013-7-22,83,70,60,69,64,60,98,83,57,0.00,40.00,0,0,0,0.00
2013-7-23,70,61,53,60,51,46,95,70,43,0.00,40.00,0,0,0,0.00
2013-7-24,74,61,47,55,44,-100,97,66,34,0.00,40.00,0,0,0,0.00
2013-7-25,79,66,52,62,57,51,97,78,45,0.00,40.00,0,0,1,0.00
2013-7-26,72,63,50,65,57,45,97,83,51,0.00,40.00,0,0,1,0.00
2013-7-27,55,50,45,50,46,44,97,88,66,0.00,40.00,0,0,0,0.00
2013-7-28,62,54,47,55,50,46,98,87,66,0.00,40.00,0,0,1,0.00
2013-7-29,76,61,47,57,50,45,98,71,38,0.00,40.00,0,0,0,0.00
2013-7-30,72,64,58,63,59,56,96,82,56,0.00,40.00,0,-42,0,0.00
2013-7-31,74,67,57,65,50,-100,97,80,46,0.00,40.00,0,0,0,0.00
2013-8-1,74,63,52,55,47,-100,95,68,38,0.00,40.00,0,0,0,0.00
2013-8-2,73,64,52,59,52,46,97,70,39,0.00,40.00,0,0,0,0.00
2013-8-3,72,62,50,53,48,44,96,64,37,0.00,40.00,0,0,0,0.00
2013-8-4,72,61,46,54,48,43,97,66,36,0.00,40.00,0,0,0,0.00
2013-8-5,71,62,50,64,58,49,97,88,66,0.00,40.00,0,0,0,0.00
2013-8-6,80,68,59,65,59,49,98,76,34,0.00,40.00,0,0,0,0.00
2013-8-7,71,63,57,62,58,56,98,87,59,0.00,40.00,0,0,0,0.00
2013-8-8,75,68,56,53,9,-100,92,48,30,0.00,40.00,0,0,0,0.00
2013-8-9,72,64,55,59,50,43,95,65,36,0.00,40.00,0,0,1,0.00
2013-8-10,71,63,52,55,51,47,94,67,42,0.00,40.00,0,0,0,0.00
2013-8-11,74,62,50,59,55,50,97,80,49,0.00,40.00,0,0,0,0.00
2013-8-21,87,74,62,70,67,62,98,79,50,0.00,40.00,0,0,1,0.00
2013-8-22,81,69,60,63,44,-100,98,67,31,0.00,40.00,0,0,0,0.00
2013-8-23,82,68,56,58,54,50,96,66,40,0.00,40.00,0,0,0,0.00
2013-8-24,83,70,58,69,49,-100,96,68,37,0.00,40.00,0,0,0,0.00
2013-8-25,92,80,70,73,69,67,96,71,46,0.00,40.00,0,0,1,0.00
2013-8-26,91,78,68,76,71,66,98,81,49,0.00,40.00,0,0,0,0.00
2013-8-27,88,79,74,77,73,70,97,84,57,0.00,40.00,0,0,0,0.00
2013-9-24,68,53,43,54,47,43,98,84,42,0.00,40.00,0,0,0,0.00
2013-9-25,67,54,42,54,46,41,98,79,45,0.00,40.00,0,0,0,0.00
2013-9-26,71,55,43,55,41,-100,98,79,33,0.00,40.00,0,0,0,0.00
2013-9-27,78,63,50,53,49,44,94,67,37,0.00,40.00,0,0,1,0.00
2013-9-28,72,58,51,64,53,50,98,84,52,0.00,40.00,0,0,1,0.00
2013-9-29,69,55,41,52,44,39,98,70,35,0.00,40.00,0,0,0,0.00
2013-9-30,70,58,47,49,44,41,92,63,36,0.00,40.00,0,0,1,0.00
2013-10-29,38,33,26,37,29,21,97,87,78,0.00,40.00,0,0,0,0.00
2013-10-30,50,43,38,49,43,37,98,98,97,0.00,40.00,0,0,0,0.00
2013-10-31,53,48,39,53,47,39,98,98,98,0.00,40.00,0,0,1,0.00
2013-11-1,42,40,38,41,39,36,98,94,86,0.00,40.00,0,0,1,0.00
2013-11-2,41,36,27,37,33,27,97,91,78,0.00,40.00,0,0,0,0.00
2013-11-3,45,35,27,35,31,27,98,84,55,0.00,40.00,0,0,0,0.00
2013-11-4,46,42,39,43,38,34,97,85,69,0.00,40.00,0,0,1,0.00
2013-11-6,37,34,28,35,29,21,98,84,55,0.00,40.00,0,0,0,0.00
2013-11-7,33,29,25,28,25,19,97,85,56,0.00,40.00,0,0,0,0.00
2013-11-8,38,31,25,35,28,25,98,89,70,0.00,40.00,0,0,0,0.00
2013-11-9,41,38,35,41,34,25,97,84,63,0.00,40.00,0,0,1,0.00
2013-11-10,41,37,34,33,27,24,94,67,52,0.00,40.00,0,0,1,0.00
2013-11-11,36,26,18,34,16,4,97,67,39,0.00,40.00,0,-43,0,0.00
2013-11-12,24,18,12,12,10,8,87,71,50,0.00,40.00,0,0,0,0.00
2013-12-23,19,8,-3,17,6,-6,96,91,83,0.00,40.00,0,0,0,0.00
2013-12-24,10,-1,-17,7,-4,-20,92,86,78,0.00,40.00,0,0,0,0.00
2013-12-25,15,11,7,14,9,4,94,90,85,0.00,40.00,0,0,0,0.00
2013-12-26,17,13,7,12,10,4,88,85,78,0.00,40.00,0,0,0,0.00
2013-12-27,34,23,15,28,21,12,96,89,75,0.00,40.00,0,0,0,0.00
2013-12-28,32,25,21,31,24,20,98,96,87,0.00,40.00,0,0,0,0.00
2013-12-29,30,10,-8,29,4,-15,97,78,62,0.00,40.00,0,0,1,0.00